South Hill, VA

4:44 PM EST on December 06, 2019 (GMT -0500)
Mecklenburg-Brunswick Regional

Weather History for KAVC - September, 2019

Change the Weather History Date:

Sunday, September 1, 2019

  Actual Average (WUND) Record (WUND)
Temperature  
Mean Temperature 74 °F -  
Max Temperature 87 °F - - (-1)
Min Temperature 62 °F - - (-1)
Cooling Degree Days 9    
Growing Degree Days 24 (Base 50)    
Moisture  
Dew Point 67 °F    
Average Humidity 82    
Maximum Humidity 100    
Minimum Humidity 51    
Precipitation  
Precipitation 0.00 in - - ()
Sea Level Pressure  
Sea Level Pressure 30.25 in    
Wind  
Wind Speed 1 mph (East)    
Max Wind Speed 6 mph    
Max Gust Speed -    
Visibility 8 miles    
Events      
Averages and records for this station are not official NWS values.
T = Trace of Precipitation, MM = Missing Value Source: NWS Daily Summary

Daily Weather History Graph

Daily Weather History Graph

Search for Another Location

Airport or City:

Astronomy

Sep. 01, 2019 Rise Set
Actual Time 6:43 AM EDT 7:40 PM EDT
Civil Twilight 6:16 AM EDT 8:07 PM EDT
Nautical Twilight 5:45 AM EDT 8:38 PM EDT
Astronomical Twilight 5:12 AM EDT 9:10 PM EDT
Moon 9:07 AM EDT (9/1) 9:31 PM EDT (9/1)
Length of Visible Light 13h 50m
Length of Day
12h 57m
Waxing Crescent, 8% of the Moon is Illuminated
Sep 1
Waxing Crescent
Sep 5
First Quarter
Sep 14
Full
Sep 21
Last Quarter
Sep 28
New

Hourly Weather History & Observations

Time (EDT) Temp. Heat Index Dew Point Humidity Pressure Visibility Wind Dir Wind Speed Gust Speed Precip Events Conditions
12:15 AM 70.0 °F - 67.3 °F 91% 30.27 in 10.0 mi Calm Calm - N/A   Clear
12:35 AM 68.5 °F - 66.9 °F 95% 30.27 in 10.0 mi Calm Calm - N/A   Clear
12:55 AM 68.0 °F - 66.7 °F 96% 30.28 in 10.0 mi Calm Calm - N/A   Clear
1:15 AM 68.0 °F - 66.6 °F 95% 30.28 in 10.0 mi Calm Calm - N/A   Clear
1:35 AM 66.7 °F - 66.6 °F 99% 30.27 in 10.0 mi Calm Calm - N/A   Clear
1:55 AM 66.2 °F - 66.0 °F 99% 30.27 in 7.0 mi Calm Calm - N/A   Clear
2:15 AM 66.7 °F - 66.2 °F 98% 30.27 in 10.0 mi Calm Calm - N/A   Clear
2:35 AM 66.6 °F - 65.8 °F 98% 30.27 in 10.0 mi Calm Calm - N/A   Clear
2:55 AM 65.3 °F - 65.3 °F 100% 30.27 in 10.0 mi NNW 3.5 mph - N/A   Clear
3:15 AM 64.9 °F - 64.9 °F 100% 30.26 in 10.0 mi Calm Calm - N/A   Clear
3:35 AM 63.3 °F - 63.3 °F 100% 30.26 in 10.0 mi Calm Calm - N/A   Clear
3:55 AM 63.9 °F - 63.9 °F 100% 30.26 in 10.0 mi Calm Calm - N/A   Clear
4:15 AM 64.0 °F - 64.0 °F 100% 30.26 in 10.0 mi Calm Calm - N/A   Clear
4:35 AM 63.7 °F - 63.7 °F 100% 30.26 in 10.0 mi Calm Calm - N/A   Clear
4:55 AM 63.7 °F - 63.7 °F 100% 30.26 in 10.0 mi Calm Calm - N/A   Clear
5:15 AM 62.6 °F - 62.6 °F 100% 30.26 in 10.0 mi North 3.5 mph - N/A   Clear
5:35 AM 63.1 °F - 63.1 °F 100% 30.27 in 10.0 mi Calm Calm - N/A   Clear
5:55 AM 63.1 °F - 63.1 °F 100% 30.27 in 10.0 mi Calm Calm - N/A   Clear
6:15 AM 62.8 °F - 62.8 °F 100% 30.27 in 10.0 mi Calm Calm - N/A   Clear
6:35 AM 62.1 °F - 62.1 °F 100% 30.27 in 10.0 mi North 3.5 mph - N/A   Clear
6:55 AM 63.1 °F - 63.1 °F 100% 30.27 in 10.0 mi Calm Calm - N/A   Clear
7:15 AM 62.4 °F - 62.4 °F 100% 30.28 in 10.0 mi Calm Calm - N/A   Clear
7:35 AM 62.8 °F - 62.8 °F 100% 30.28 in 10.0 mi Calm Calm - N/A   Clear
7:55 AM 66.2 °F - 66.0 °F 99% 30.29 in 10.0 mi Calm Calm - N/A   Clear
8:15 AM 67.8 °F - 66.6 °F 96% 30.29 in 10.0 mi Calm Calm - N/A   Clear
8:35 AM 69.6 °F - 67.5 °F 93% 30.29 in 10.0 mi Calm Calm - N/A   Clear
8:55 AM 70.7 °F - 67.8 °F 91% 30.29 in 10.0 mi Calm Calm - N/A   Clear
9:15 AM 72.7 °F - 69.1 °F 88% 30.29 in 10.0 mi Calm Calm - N/A   Clear
9:35 AM 74.1 °F - 69.6 °F 86% 30.30 in 10.0 mi Calm Calm - N/A   Clear
9:55 AM 75.7 °F - 70.0 °F 82% 30.30 in 10.0 mi NE 4.6 mph - N/A   Clear
10:15 AM 75.4 °F - 69.8 °F 83% 30.30 in 10.0 mi East 4.6 mph - N/A   Scattered Clouds
10:35 AM 76.6 °F - 70.2 °F 80% 30.30 in 10.0 mi Calm Calm - N/A   Mostly Cloudy
10:55 AM 78.1 °F - 69.6 °F 75% 30.30 in 10.0 mi Calm Calm - N/A   Overcast
11:35 AM 80.8 °F 84.1 °F 69.6 °F 69% 30.30 in 10.0 mi ENE 3.5 mph - N/A   Scattered Clouds
11:55 AM 81.0 °F 83.9 °F 68.7 °F 66% 30.30 in 10.0 mi NNE 4.6 mph - N/A   Scattered Clouds
12:15 PM 82.2 °F 85.8 °F 69.3 °F 65% 30.29 in 10.0 mi ENE 4.6 mph - N/A   Mostly Cloudy
12:35 PM 82.0 °F 85.1 °F 68.2 °F 63% 30.29 in 10.0 mi ENE 4.6 mph - N/A   Mostly Cloudy
12:55 PM 81.3 °F 84.0 °F 67.6 °F 63% 30.28 in 10.0 mi East 4.6 mph - N/A   Mostly Cloudy
1:15 PM 83.3 °F 86.2 °F 67.6 °F 59% 30.28 in 10.0 mi East 3.5 mph - N/A   Scattered Clouds
1:35 PM 81.9 °F 84.4 °F 67.1 °F 61% 30.27 in 10.0 mi SSE 4.6 mph - N/A   Mostly Cloudy
1:55 PM 84.2 °F 87.3 °F 68.0 °F 58% 30.27 in 10.0 mi ENE 4.6 mph - N/A   Mostly Cloudy
2:15 PM 84.9 °F 87.4 °F 66.7 °F 54% 30.25 in 10.0 mi SSE 5.8 mph - N/A   Scattered Clouds
2:55 PM 85.6 °F 87.9 °F 66.2 °F 52% 30.23 in 10.0 mi SE 5.8 mph - N/A   Scattered Clouds
3:15 PM 86.2 °F 88.4 °F 65.8 °F 51% 30.22 in 10.0 mi SE 3.5 mph - N/A   Scattered Clouds
3:55 PM 86.4 °F 88.7 °F 66.4 °F 51% 30.21 in 10.0 mi ESE 3.5 mph - N/A   Scattered Clouds
4:15 PM 84.2 °F 86.6 °F 66.6 °F 55% 30.21 in 10.0 mi East 4.6 mph - N/A   Scattered Clouds
4:35 PM 85.3 °F 87.6 °F 66.4 °F 53% 30.21 in 10.0 mi Calm Calm - N/A   Scattered Clouds
5:00 PM 83.1 °F 85.7 °F 67.1 °F 58% 30.21 in 10.0 mi Calm Calm - N/A   Mostly Cloudy
5:15 PM 84.7 °F 87.9 °F 67.8 °F 57% 30.21 in 10.0 mi SE 4.6 mph - N/A   Mostly Cloudy
5:35 PM 84.7 °F 87.9 °F 68.2 °F 57% 30.21 in 10.0 mi SE 3.5 mph - N/A   Overcast
5:55 PM 82.6 °F 85.7 °F 68.2 °F 62% 30.21 in 10.0 mi Calm Calm - N/A   Mostly Cloudy
6:15 PM 84.2 °F 87.3 °F 68.0 °F 58% 30.21 in 10.0 mi East 3.5 mph - N/A   Mostly Cloudy
6:35 PM 82.4 °F 85.2 °F 67.8 °F 61% 30.21 in 10.0 mi Calm Calm - N/A   Overcast
6:55 PM 81.0 °F 83.8 °F 68.0 °F 65% 30.21 in 10.0 mi Calm Calm - N/A   Mostly Cloudy
7:15 PM 80.6 °F 83.4 °F 68.4 °F 66% 30.21 in 10.0 mi Calm Calm - N/A   Mostly Cloudy
7:35 PM 79.0 °F - 68.5 °F 70% 30.21 in 10.0 mi Calm Calm - N/A   Scattered Clouds
7:55 PM 77.9 °F - 68.5 °F 73% 30.21 in 10.0 mi Calm Calm - N/A   Scattered Clouds
8:15 PM 77.0 °F - 68.9 °F 76% 30.21 in 7.0 mi Calm Calm - N/A   Scattered Clouds
8:40 PM 76.1 °F - 68.9 °F 78% 30.21 in 0.8 mi Calm Calm - N/A   Unknown
8:55 PM 75.4 °F - 68.9 °F 80% 30.21 in 1.8 mi Calm Calm - N/A   Unknown
9:15 PM 74.5 °F - 68.9 °F 83% 30.21 in 0.5 mi Calm Calm - N/A   Unknown
9:35 PM 74.3 °F - 69.3 °F 84% 30.21 in 1.0 mi Calm Calm - N/A   Unknown
9:55 PM 73.6 °F - 69.3 °F 86% 30.21 in 0.8 mi Calm Calm - N/A   Unknown
10:15 PM 71.6 °F - 69.1 °F 92% 30.22 in 3.0 mi Calm Calm - N/A   Clear
10:35 PM 72.1 °F - 69.1 °F 90% 30.22 in 0.8 mi Calm Calm - N/A   Unknown
10:55 PM 71.4 °F - 68.7 °F 91% 30.22 in 0.5 mi Calm Calm - N/A   Unknown
11:15 PM 70.2 °F - 68.5 °F 95% 30.22 in 0.8 mi Calm Calm - N/A   Unknown
11:35 PM 70.7 °F - 69.4 °F 96% 30.22 in 2.5 mi Calm Calm - N/A   Clear
11:55 PM 70.9 °F - 69.8 °F 96% 30.22 in 1.0 mi Calm Calm - N/A   Scattered Clouds